Weather Roundup
Issued by NWS Chicago, IL

Home | Current Version | Previous Version | Graphics & Text | Print | Product List | Glossary On
Versions: 1 2 3 4 5 6 7 8 9 10 11 12 13 14 15 16 17 18 19 20 21 22 23 24 25 26 27 28 29 30 31 32 33 34 35 36 37 38 39 40 41 42 43 44 45 46 47 48 49 50
000
NZUS59 KLOT 210808
HRRLOT

CHICAGO AREA WEATHER ROUNDUP
NATIONAL WEATHER SERVICE CHICAGO/ROMEOVILLE IL
300 AM CDT SAT APR 21 2018

NOTE: "FAIR" INDICATES FEW OR NO CLOUDS BELOW 12,000 FEET WITH NO
SIGNIFICANT WEATHER AND/OR OBSTRUCTIONS TO VISIBILITY.

* THESE STATIONS ARE NOT UNDER NWS QUALITY CONTROL. THEY ALSO MAY NOT
  REPORT WEATHER SUCH AS PRECIPITATION OR FOG.

ILZ005-006-012>014-019>023-210900-
NORTHEAST ILLINOIS

CITY           SKY/WX    TMP DP  RH WIND       PRES   REMARKS
OHARE          CLOUDY    40  21  46 CALM      30.42F
MIDWAY         CLOUDY    42  20  41 E5        30.44S
AURORA           N/A     36  22  56 NE3       30.42S
LANSING*         N/A     36  24  64 CALM      30.43F
JOLIET*          N/A     41  21  44 CALM      30.42F
WAUKEGAN         N/A     30  22  72 CALM      30.43S
DUPAGE AIRPORT   N/A     38  19  46 E3        30.42S
WHEELING         N/A     35  25  66 CALM      30.45S
KANKAKEE*        N/A     39  20  47 E7        30.42F
MORRIS*          N/A     40  22  49 E3        30.42S
LEWIS AIRPORT*   N/A     42  18  39 E7        30.42S
NORTHERLY ISL    N/A     39  21  48 N2          N/A
$$

WIZ051-052-058>065-066-070>072-210900-
SOUTHEAST WISCONSIN

CITY           SKY/WX    TMP DP  RH WIND       PRES   REMARKS
MILWAUKEE        N/A     35  20  54 CALM      30.43F
KENOSHA*         N/A     33  22  63 CALM      30.44S
RACINE*          N/A     31  23  72 W3        30.45S
BURLINGTON       N/A     29  26  87 CALM      30.44R
WAUKESHA         N/A     30  23  74 CALM      30.45R
WEST BEND        N/A     30  27  86 CALM      30.43R
$$

INZ001>003-010>013-019-020-210900-
NORTHWEST INDIANA

CITY           SKY/WX    TMP DP  RH WIND       PRES   REMARKS
GARY*            N/A     33  28  80 CALM      30.44S
MICHIGAN CITY* NOT AVBL
RENSSELAER*    NOT AVBL
VALPARAISO       N/A     39  16  39 NE5       30.44R
$$

LMZ740>746-210900-
SOUTHERN LAKE MICHIGAN

STATION/POSITION TIME  SKY/WX   TEMP WIND        PRES    VSBY
                                AIR  DIR/SP/G
                 (UTC)          (F)  (DEG/KT/KT) (MB)    (MI)
HARRISON CRIB    0740            40  120/  1/  1   N/A
BURNHAM HARBOR   0800            39   CALM  /  2   N/A
CALUMET HARBOR   0742            38   40/  2/  3 1030.0F
BURNS HARBOR     0740            42   80/  6/  7 1030.8F
MICHIGAN CITY    0740            41   60/  4/  4   N/A
$$

ABBREVIATIONS USED IN REMARKS
   TC - TEMPERATURE IN CELSIUS
  WCI - WIND CHILL INDEX
   HX - HEAT INDEX
  VSB - VISIBILITY
$$




USA.gov is the U.S. government's official web portal to all federal, state and local government web resources and services.